Wind_Speed
15 15 16 17 16 16 17 16 16 16 16 17 17 18 19 20 21 20 19 20 21 21 21 21 22 23 23 23 23 23 23 23 23 22 22 22 22 22 21 21 20 20 19
16 16 16 17 17 17 17 17 17 17 17 18 18 19 19 20 21 21 20 21 21 22 22 22 23 24 23 23 24 24 24 24 24 24 23 23 23 23 23 23 22 22 22
16 16 16 16 17 18 18 18 17 17 17 18 18 19 19 20 20 21 22 21 22 22 22 23 23 24 24 24 24 25 25 25 25 25 24 24 24 24 24 24 24 23 23
16 16 16 16 17 18 18 18 17 17 18 18 18 19 19 19 19 20 21 21 22 22 23 23 23 24 24 25 25 25 25 26 26 26 25 25 25 25 25 25 24 24 24
16 16 17 17 17 18 18 18 18 18 18 19 20 19 19 20 20 21 21 22 22 22 23 22 22 23 23 24 25 25 25 26 26 26 26 26 26 26 26 26 26 25 24
16 17 17 17 18 18 18 18 17 18 19 19 19 19 20 20 20 21 21 22 22 23 24 23 22 22 23 24 24 25 25 25 25 26 26 26 26 27 27 27 27 26 25
17 17 17 18 18 18 18 18 19 19 19 19 19 19 20 20 20 21 21 21 22 22 23 23 23 22 22 23 25 25 26 27 26 26 27 27 27 28 28 28 27 27 27
18 17 17 18 18 18 18 18 18 18 19 19 19 19 19 19 19 20 21 21 22 22 23 23 23 23 23 23 24 25 26 28 28 28 28 28 29 29 29 29 29 29 29
17 17 18 18 18 18 19 19 19 19 18 18 19 20 20 19 19 20 20 21 22 22 23 23 23 24 24 24 25 26 26 27 28 29 29 29 29 30 30 31 31 31 32
17 18 18 19 19 18 18 18 18 18 19 19 19 20 20 20 20 20 20 21 22 22 23 23 23 24 24 24 24 25 26 27 28 28 29 29 29 30 31 32 32 32 32
17 17 18 18 18 18 18 19 19 19 19 19 19 19 20 20 21 21 21 21 22 23 23 23 23 24 24 24 24 24 25 26 27 28 28 29 30 31 32 33 34 33 33
18 18 19 18 18 19 19 19 18 19 19 19 19 20 20 20 21 21 22 22 22 23 23 23 23 24 24 24 24 24 25 26 27 28 29 30 31 32 32 33 34 34 34
19 19 19 19 19 19 19 19 18 19 19 20 20 20 20 21 21 22 22 22 23 23 23 23 23 24 24 25 25 25 25 25 27 28 29 29 30 31 32 32 33 33 33
19 20 20 19 19 20 19 19 19 19 20 21 21 21 21 21 22 22 22 22 23 23 23 24 24 24 24 24 25 25 26 26 27 28 29 29 30 31 31 32 32 32 32
19 20 20 19 20 20 20 19 20 21 21 21 21 21 21 22 21 21 22 22 22 22 22 23 24 24 24 23 24 25 26 26 26 27 28 29 30 31 31 31 31 31 31
20 20 19 19 20 21 20 20 20 21 21 21 21 20 20 20 20 20 20 20 20 21 21 22 23 23 23 23 24 24 24 25 26 26 27 28 29 29 30 30 31 31 31
20 19 19 20 20 20 20 20 20 20 20 20 20 19 19 19 19 19 19 19 19 20 21 21 22 22 22 22 23 23 23 24 24 25 25 26 27 28 28 28 29 30 31
19 19 20 20 20 20 20 20 19 19 19 19 18 18 18 18 19 19 18 18 18 19 19 19 20 21 21 21 20 21 21 22 22 22 24 24 24 25 25 26 27 28 29
19 19 20 20 19 19 19 20 19 19 18 18 18 18 17 18 18 18 17 17 18 18 18 18 18 19 19 19 19 20 20 20 20 20 20 21 21 22 23 24 25 26 27
20 20 19 19 19 19 19 19 18 18 17 17 17 17 17 17 17 17 17 17 17 17 17 17 17 17 18 18 18 18 18 18 19 18 18 17 18 18 20 21 23 24 25
20 20 19 19 19 19 18 18 18 17 17 16 16 16 16 16 17 17 17 17 17 17 17 16 16 17 17 18 18 18 18 17 17 16 16 16 16 16 18 19 20 21 23
20 19 19 18 18 18 17 17 17 17 15 15 16 16 16 17 16 16 16 16 16 17 16 16 16 17 17 17 17 17 16 15 14 14 14 14 15 15 16 17 18 19 21
19 19 19 18 18 17 16 16 16 15 14 14 14 15 15 15 14 15 15 16 16 17 17 17 16 17 16 15 15 14 14 14 13 12 12 13 14 14 15 16 17 18 20
20 20 19 18 18 17 16 16 15 13 13 13 13 14 13 13 13 14 15 16 16 16 16 16 17 16 15 13 13 12 12 12 11 11 12 12 12 13 14 14 15 16 18
20 19 19 18 18 17 16 15 15 13 12 13 13 13 13 12 12 13 13 14 14 15 16 15 15 14 14 13 11 11 10 10 10 11 11 12 12 13 13 14 14 15 17
19 19 19 18 17 16 16 15 14 14 13 13 13 13 13 13 13 13 13 13 13 13 13 13 13 13 13 12 11 10 10 10 10 10 10 11 12 12 12 13 13 13 14
Wind_Direction
292 290 289 289 287 284 281 278 274 272 269 267 266 266 264 264 265 264 262 260 258 259 260 259 258 256 256 258 258 257 255 254 251 252 250 249 247 248 250 251 251 250 249
293 291 289 289 287 283 280 278 279 277 272 270 270 270 269 265 265 265 263 260 259 259 259 260 260 259 258 257 258 256 255 253 250 251 252 250 248 249 250 251 250 250 251
293 292 292 292 288 282 280 280 279 279 276 273 271 271 271 267 266 266 263 261 258 259 259 260 259 258 258 258 257 256 254 253 251 251 252 252 250 249 249 250 250 251 250
293 293 294 291 287 284 283 282 279 279 279 277 274 274 274 271 267 269 268 266 261 259 260 260 260 261 259 258 256 256 253 252 251 251 251 251 251 251 250 250 252 252 251
296 296 294 291 290 287 286 283 280 279 280 278 277 276 277 277 273 273 272 270 266 262 263 263 261 261 258 258 257 256 255 254 252 250 250 251 252 253 252 251 251 251 250
297 297 294 292 291 291 288 285 283 282 282 281 279 278 277 276 273 272 271 272 269 268 267 267 263 261 260 259 260 259 257 257 254 251 251 253 252 253 252 251 250 249 248
299 298 294 293 292 293 290 286 286 284 284 281 279 279 277 275 273 272 271 272 271 271 271 271 269 265 262 260 260 258 257 257 256 254 254 254 254 253 252 251 250 249 248
298 296 295 294 294 293 292 289 288 286 287 283 281 279 277 274 273 273 272 273 272 270 270 271 269 267 264 262 260 259 258 257 256 257 256 255 254 252 251 250 250 249 250
297 296 297 298 298 296 294 292 292 289 287 285 283 280 277 277 273 273 274 273 272 271 270 270 271 268 265 264 263 262 260 258 257 258 257 255 253 252 250 250 250 249 250
301 299 297 297 298 298 298 296 295 290 288 287 284 281 279 280 277 276 275 273 272 271 269 268 269 268 268 266 265 263 262 262 260 258 256 255 254 253 251 250 249 249 249
304 304 302 301 300 299 298 298 295 291 290 289 288 285 282 280 280 279 278 276 274 273 271 271 269 269 269 268 267 265 265 265 263 261 259 258 257 255 254 250 249 248 248
304 304 304 304 303 302 300 298 296 294 292 291 290 289 286 283 281 281 279 277 275 274 272 271 270 269 269 271 270 268 267 267 264 263 263 262 260 259 256 253 250 249 248
305 303 302 302 303 302 300 297 296 296 294 293 292 290 288 285 283 282 281 278 275 274 273 271 271 271 270 271 271 270 268 268 266 264 263 262 261 259 257 255 253 250 250
304 304 301 301 301 301 299 295 294 295 295 294 292 290 287 286 285 283 283 281 278 275 273 271 271 272 272 273 274 273 271 271 270 266 263 262 261 259 258 254 253 251 250
302 303 302 301 302 302 300 298 296 295 294 293 292 289 287 286 285 284 284 283 281 279 275 274 273 273 273 274 275 275 274 274 272 268 265 264 262 260 258 255 252 250 250
302 303 302 301 301 302 301 299 297 295 295 293 292 289 288 288 288 289 288 286 285 282 280 278 275 274 275 275 275 276 275 274 274 271 267 266 264 262 258 255 252 250 250
305 304 302 301 301 301 301 299 298 297 295 293 291 290 288 288 289 291 292 291 287 285 286 285 280 278 278 277 276 277 277 277 276 273 270 268 266 263 259 255 252 251 250
309 306 305 304 302 303 303 302 300 298 295 291 290 290 290 288 289 290 292 293 290 288 288 287 284 279 276 276 277 279 281 280 277 277 274 271 268 263 259 254 250 250 249
312 311 311 309 306 306 305 304 303 300 296 290 289 291 291 290 289 289 290 291 291 293 292 290 286 283 278 276 279 282 282 282 280 281 279 274 269 262 257 253 251 250 249
317 316 312 312 312 310 306 306 305 302 298 294 292 292 294 292 289 289 290 291 291 294 293 293 290 286 282 281 282 283 283 283 283 282 279 273 268 264 259 252 250 249 249
317 318 314 312 311 312 310 309 309 304 298 296 294 292 294 294 290 288 290 291 291 295 294 293 292 291 288 286 284 286 285 284 282 279 275 272 269 266 261 255 251 250 248
315 318 317 314 312 313 315 315 311 309 303 300 298 296 295 295 292 288 289 291 291 292 292 291 291 295 295 290 286 287 285 284 280 277 273 267 266 267 266 262 256 252 246
312 313 314 315 315 316 317 320 318 316 313 308 303 301 302 302 297 294 293 293 293 292 292 291 291 295 298 295 291 287 283 282 278 275 272 266 266 268 267 264 261 256 248
310 311 310 310 313 317 316 317 320 319 321 317 313 310 308 307 304 302 299 296 293 292 292 290 290 292 292 293 290 287 283 281 279 275 273 269 267 266 267 265 265 261 255
306 309 308 307 309 314 317 316 317 317 320 318 314 310 308 307 306 308 307 301 295 293 293 291 292 291 292 293 289 285 282 281 280 279 278 275 270 267 268 269 268 262 258
302 305 307 306 305 307 309 311 313 313 315 316 315 312 309 307 309 309 312 309 305 301 295 292 292 291 290 289 286 283 282 282 279 280 280 277 273 270 269 272 271 265 257
Height
5847 5846 5845 5844 5844 5843 5843 5843 5843 5843 5843 5844 5844 5845 5846 5847 5847 5848 5848 5849 5850 5850 5851 5852 5853 5854 5856 5857 5858 5860 5861 5862 5864 5865 5867 5868 5870 5872 5873 5875 5877 5878 5880
5843 5842 5841 5841 5840 5839 5839 5839 5839 5839 5839 5840 5840 5841 5841 5842 5842 5843 5843 5844 5845 5845 5846 5847 5848 5849 5850 5852 5853 5854 5856 5857 5858 5860 5862 5863 5865 5867 5869 5871 5872 5874 5876
5840 5839 5838 5837 5836 5835 5835 5834 5835 5835 5835 5835 5835 5836 5836 5836 5837 5838 5838 5838 5839 5839 5841 5842 5843 5844 5845 5846 5848 5849 5850 5852 5853 5855 5856 5858 5860 5862 5864 5866 5867 5869 5871
5836 5835 5834 5833 5832 5831 5830 5830 5830 5830 5830 5830 5830 5831 5831 5831 5832 5832 5833 5833 5834 5834 5835 5836 5837 5839 5839 5841 5842 5843 5844 5846 5847 5849 5851 5853 5855 5857 5858 5860 5862 5864 5865
5833 5831 5830 5829 5828 5827 5826 5826 5826 5826 5826 5826 5826 5826 5826 5826 5827 5827 5827 5828 5828 5829 5830 5831 5832 5833 5834 5835 5836 5837 5839 5840 5841 5843 5845 5847 5849 5851 5853 5854 5856 5858 5860
5829 5828 5827 5825 5824 5823 5822 5822 5821 5821 5821 5820 5821 5821 5821 5821 5821 5822 5822 5822 5823 5824 5824 5825 5826 5827 5828 5829 5830 5831 5833 5834 5835 5837 5839 5840 5842 5844 5846 5848 5850 5852 5854
5826 5824 5823 5821 5820 5819 5818 5817 5817 5816 5816 5815 5815 5815 5816 5816 5816 5816 5816 5817 5818 5818 5818 5819 5819 5820 5821 5823 5824 5825 5827 5828 5829 5830 5832 5834 5835 5837 5839 5842 5844 5846 5848
5822 5821 5819 5818 5816 5815 5814 5813 5812 5811 5811 5810 5810 5810 5810 5811 5810 5810 5811 5811 5812 5812 5813 5813 5813 5814 5815 5816 5818 5819 5820 5821 5822 5824 5825 5827 5828 5830 5832 5835 5837 5839 5841
5818 5817 5816 5814 5813 5811 5810 5809 5808 5807 5806 5806 5805 5805 5805 5805 5805 5806 5805 5806 5806 5806 5807 5807 5807 5808 5809 5810 5811 5812 5813 5814 5815 5816 5817 5819 5821 5822 5825 5827 5829 5831 5834
5815 5813 5812 5810 5809 5807 5805 5804 5803 5802 5801 5801 5800 5799 5799 5799 5799 5800 5800 5800 5800 5800 5800 5801 5801 5802 5802 5803 5804 5805 5806 5806 5807 5808 5809 5811 5812 5814 5816 5818 5821 5823 5825
5812 5810 5808 5806 5804 5803 5801 5799 5798 5797 5796 5796 5795 5794 5794 5793 5793 5793 5794 5794 5794 5794 5794 5794 5795 5795 5796 5796 5796 5797 5798 5799 5799 5800 5801 5802 5804 5805 5807 5809 5812 5814 5816
5808 5806 5804 5802 5800 5798 5796 5794 5793 5792 5791 5790 5790 5789 5788 5788 5787 5787 5787 5787 5787 5788 5787 5788 5788 5789 5789 5789 5789 5789 5790 5791 5791 5792 5793 5794 5795 5796 5798 5800 5802 5805 5807
5804 5802 5800 5797 5796 5793 5792 5790 5789 5788 5787 5785 5784 5783 5782 5782 5781 5781 5781 5781 5781 5781 5781 5781 5781 5781 5782 5782 5782 5782 5782 5782 5783 5783 5784 5785 5786 5787 5788 5790 5792 5795 5798
5800 5797 5795 5793 5791 5789 5787 5785 5784 5783 5782 5780 5779 5778 5777 5776 5775 5775 5774 5774 5774 5774 5774 5774 5774 5774 5774 5775 5775 5774 5774 5774 5774 5775 5775 5776 5777 5778 5779 5781 5783 5786 5789
5795 5793 5790 5788 5786 5784 5782 5780 5779 5778 5776 5775 5774 5772 5771 5770 5769 5768 5767 5767 5767 5767 5768 5767 5767 5767 5767 5767 5767 5766 5766 5766 5766 5766 5766 5767 5768 5769 5770 5772 5774 5776 5779
5790 5788 5785 5783 5781 5779 5777 5775 5774 5772 5771 5770 5768 5767 5765 5764 5763 5762 5761 5760 5760 5760 5760 5760 5760 5760 5760 5760 5759 5759 5758 5758 5757 5757 5758 5758 5758 5759 5761 5763 5765 5767 5771
5785 5783 5781 5778 5776 5774 5772 5770 5768 5766 5765 5764 5762 5761 5760 5759 5758 5757 5756 5755 5754 5753 5753 5753 5753 5752 5752 5752 5752 5751 5750 5750 5749 5749 5749 5749 5750 5751 5752 5754 5756 5759 5762
5781 5779 5776 5773 5771 5769 5767 5765 5763 5761 5759 5758 5757 5756 5755 5754 5753 5752 5751 5750 5749 5748 5747 5747 5746 5746 5746 5745 5745 5744 5743 5742 5742 5742 5741 5741 5742 5743 5744 5746 5748 5750 5753
5777 5774 5772 5769 5766 5764 5761 5759 5757 5755 5753 5752 5751 5751 5750 5749 5749 5748 5747 5745 5744 5743 5742 5741 5741 5740 5740 5739 5739 5738 5737 5736 5735 5735 5734 5734 5735 5735 5736 5738 5740 5743 5746
5774 5770 5768 5765 5762 5759 5756 5754 5751 5749 5748 5747 5746 5746 5745 5745 5744 5743 5742 5741 5740 5738 5737 5736 5735 5735 5734 5733 5733 5732 5731 5730 5729 5728 5728 5728 5729 5729 5730 5732 5734 5737 5739
5770 5766 5763 5761 5758 5755 5752 5749 5747 5744 5743 5742 5741 5741 5741 5740 5739 5738 5737 5736 5735 5734 5733 5732 5731 5730 5729 5728 5727 5726 5726 5724 5724 5723 5723 5723 5724 5725 5726 5727 5729 5730 5733
5766 5763 5760 5756 5753 5750 5748 5745 5742 5740 5739 5738 5737 5737 5737 5736 5735 5734 5733 5732 5731 5730 5728 5727 5726 5725 5724 5723 5722 5721 5720 5720 5719 5720 5719 5720 5720 5721 5722 5723 5724 5725 5727
5763 5759 5756 5753 5749 5747 5744 5742 5739 5737 5735 5734 5734 5734 5733 5731 5730 5730 5729 5728 5726 5725 5724 5723 5722 5721 5719 5718 5717 5716 5716 5715 5715 5715 5716 5716 5717 5717 5718 5718 5719 5720 5722
5758 5755 5752 5749 5747 5744 5742 5739 5737 5735 5734 5732 5731 5731 5730 5728 5727 5726 5725 5723 5722 5720 5719 5718 5717 5716 5715 5714 5713 5712 5712 5712 5712 5712 5712 5713 5713 5714 5714 5715 5715 5715 5716
5754 5751 5748 5746 5743 5741 5739 5737 5735 5733 5732 5731 5729 5728 5727 5726 5724 5722 5721 5719 5718 5716 5715 5714 5713 5712 5711 5710 5709 5709 5709 5709 5709 5709 5709 5710 5710 5711 5711 5711 5711 5711 5712
5749 5747 5744 5742 5740 5738 5736 5734 5733 5731 5730 5729 5727 5726 5724 5723 5721 5719 5717 5716 5714 5712 5711 5710 5709 5708 5707 5707 5706 5706 5707 5707 5707 5707 5707 5707 5707 5707 5708 5708 5707 5707 5708